Temperature
21 21 20 19 18 17 17 16 15 14 13 12 12 12 11 11 11 10 10 10 10 10 10 9 9 9 9 9 8 8 8 8 8 8 8 8 8 7 7 7 7 6 6
21 20 19 19 18 17 17 16 15 15 14 13 13 12 12 11 11 11 10 10 10 10 10 10 9 9 9 9 9 8 8 8 7 7 7 7 7 7 7 7 6 6 5
20 20 19 18 17 17 16 16 15 14 14 13 12 12 11 11 11 10 10 10 10 10 10 10 9 9 9 9 9 8 8 7 7 7 6 6 6 6 6 6 5 5 5
20 19 18 17 17 16 15 15 14 14 13 13 12 12 12 11 11 11 10 10 10 10 10 9 9 9 9 9 8 8 8 7 7 6 6 5 5 4 5 5 5 5 4
19 18 17 17 16 15 15 14 14 13 13 13 12 12 12 11 11 11 10 10 10 10 10 10 9 9 9 9 8 8 8 7 7 6 6 6 5 4 3 4 5 5 4
18 17 16 16 15 14 14 14 13 13 13 12 12 12 11 11 10 10 10 10 10 10 10 10 9 9 9 8 8 8 7 7 7 6 6 5 5 4 3 3 3 4 4
17 16 15 15 14 14 13 13 13 13 12 12 12 11 11 11 11 11 10 10 10 10 10 10 9 9 9 8 8 8 7 7 6 6 5 5 4 4 3 2 2 2 3
16 15 14 14 13 13 13 13 13 13 12 12 12 11 11 10 10 10 10 10 10 10 10 9 9 9 9 8 8 7 7 7 6 6 5 5 4 4 3 2 2 1 1
16 15 14 13 13 13 13 13 13 12 12 12 12 11 11 10 10 10 10 10 10 10 10 9 9 9 8 8 7 7 7 6 6 5 5 4 4 3 3 2 1 0 -1
16 15 14 14 13 13 13 12 12 12 13 12 12 11 11 11 10 10 10 10 10 10 9 9 9 8 8 8 7 7 6 6 5 5 4 4 3 3 2 2 1 1 -0
16 15 14 14 13 13 13 12 12 12 12 12 11 11 11 10 10 10 10 10 10 9 9 9 9 8 8 7 7 6 6 5 5 4 4 4 3 2 2 1 1 0 -0
16 15 14 14 13 13 13 12 12 12 12 11 11 11 10 10 10 10 10 10 9 9 9 9 8 8 7 7 6 6 5 5 4 4 3 3 2 2 2 1 0 0 -1
16 15 14 14 13 13 13 13 12 12 12 11 11 10 10 10 10 10 9 9 9 9 9 8 8 7 7 6 6 5 5 4 4 3 3 2 2 2 1 0 -0 -1 -1
16 15 14 14 13 13 13 13 12 12 12 11 11 10 10 10 10 9 9 9 9 8 8 8 7 7 6 6 5 5 4 4 3 3 2 2 1 1 0 -0 -1 -1 -2
16 15 15 14 13 13 13 12 12 12 11 11 11 11 10 10 9 9 9 8 8 8 8 7 7 6 6 5 5 4 4 3 3 2 2 1 1 0 -0 -1 -1 -2 -2
16 15 15 14 13 13 13 12 12 11 11 11 10 10 10 9 9 9 8 8 8 7 7 7 6 6 5 5 4 4 3 2 2 2 1 1 0 -0 -1 -2 -2 -3 -3
16 15 15 14 14 13 13 12 12 11 11 10 10 9 9 9 8 8 8 7 7 7 7 6 6 5 5 4 4 3 2 2 1 1 0 -0 -1 -1 -2 -2 -3 -3 -4
16 15 15 14 14 13 12 12 11 10 10 10 9 9 8 8 8 7 7 7 7 6 6 6 5 5 4 4 3 2 2 1 1 0 -0 -1 -1 -2 -2 -3 -3 -4 -4
15 15 14 14 13 13 12 11 11 10 10 9 9 8 8 7 7 7 6 6 6 6 5 5 4 4 3 3 2 1 1 0 0 -0 -1 -2 -2 -3 -3 -4 -4 -4 -4
15 14 13 13 13 12 11 11 10 10 9 9 8 8 7 7 6 6 6 5 5 5 5 4 4 3 3 2 1 1 0 -0 -1 -1 -2 -2 -3 -3 -4 -4 -5 -5 -5
14 13 13 12 12 11 11 11 10 10 9 8 8 7 7 6 6 5 5 5 4 4 4 3 3 2 2 1 1 -0 -1 -1 -2 -2 -2 -3 -4 -4 -5 -5 -5 -5 -6
13 12 12 12 11 11 10 10 10 9 8 8 7 6 6 5 5 4 4 4 4 3 3 2 2 2 1 0 -0 -1 -1 -2 -3 -3 -3 -4 -5 -5 -5 -6 -6 -6 -6
12 11 11 11 10 10 10 9 9 8 8 7 6 6 5 5 4 4 4 3 3 3 2 2 1 1 0 -1 -1 -2 -3 -3 -4 -4 -5 -5 -5 -6 -6 -6 -6 -7 -7
11 11 11 10 10 9 9 9 8 7 7 6 5 5 4 4 4 3 3 3 2 2 1 1 0 -0 -1 -1 -2 -3 -3 -4 -5 -5 -5 -6 -6 -7 -7 -7 -7 -7 -7
11 10 10 10 9 9 8 8 7 6 6 5 5 4 4 3 3 3 2 2 1 1 0 -0 -1 -2 -2 -2 -3 -4 -4 -5 -5 -6 -6 -7 -7 -7 -7 -7 -8 -8 -8
10 10 9 9 9 8 7 7 6 6 5 5 4 4 3 3 2 2 2 1 0 -0 -1 -1 -2 -2 -3 -4 -4 -5 -5 -6 -6 -7 -7 -7 -8 -8 -8 -8 -8 -8 -9
Wind_Speed
9 11 11 11 11 10 12 14 14 13 11 10 9 8 7 6 6 6 10 11 10 10 7 4 4 3 2 2 1 2 2 2 2 3 4 5 3 1 1 1 1 2 2
5 8 10 10 10 10 11 13 14 13 12 10 9 7 7 6 5 5 8 11 10 10 8 5 4 4 2 2 2 2 1 1 2 2 2 4 5 3 2 2 1 2 3
4 7 9 9 10 10 11 11 13 13 12 11 8 7 6 5 4 5 5 7 10 10 8 7 5 4 3 3 3 3 2 0 1 2 2 1 2 4 4 3 2 2 2
4 6 9 10 10 9 9 10 11 12 11 12 11 12 8 7 6 6 5 6 9 10 9 8 7 5 3 4 3 3 2 2 0 1 0 2 2 1 4 5 3 4 4
4 5 8 9 9 9 8 8 10 11 11 12 12 11 8 7 6 7 8 7 6 9 9 9 7 5 4 4 4 3 2 2 2 1 0 1 1 2 3 5 5 5 4
6 5 7 9 8 8 8 7 9 10 11 12 12 11 11 10 10 10 9 7 6 5 7 9 7 6 4 4 4 3 3 2 2 1 2 2 2 3 3 5 6 6 5
7 7 8 9 9 9 8 7 9 10 11 11 11 11 11 11 11 10 9 9 6 5 7 6 5 5 5 6 5 3 3 3 3 3 2 2 3 3 3 4 6 6 5
7 8 9 9 9 10 9 9 10 10 11 11 10 10 10 8 8 9 9 8 7 7 8 7 7 7 7 6 5 3 4 3 4 4 4 3 4 3 3 4 4 7 6
8 8 9 9 10 11 10 10 10 10 11 11 10 10 10 9 9 9 8 7 7 7 8 8 7 6 7 6 5 4 4 4 4 4 4 4 4 4 4 4 4 5 8
8 9 8 9 9 10 10 10 10 10 10 10 9 8 9 9 9 9 9 9 9 8 9 8 7 7 6 6 5 4 4 4 4 4 5 5 4 5 5 5 5 6 7
8 8 8 8 9 9 10 9 9 9 10 10 9 8 8 9 9 8 9 9 8 9 9 9 8 7 7 6 5 5 5 5 5 5 6 7 6 5 5 5 5 6 7
7 7 8 8 8 9 9 9 9 9 9 9 8 8 8 9 9 8 9 9 9 9 9 8 8 7 7 6 6 6 6 6 6 6 6 7 6 7 6 6 7 7 7
7 6 7 8 8 9 9 9 9 9 9 9 9 9 9 9 9 9 9 9 9 8 8 8 7 7 7 6 6 6 5 5 6 6 6 7 7 8 7 7 7 7 8
8 7 6 7 8 8 8 9 9 9 9 9 9 9 9 9 9 8 8 9 9 8 8 7 7 7 6 6 5 5 5 5 5 6 7 7 8 9 9 8 8 7 7
8 7 7 6 7 8 8 8 8 8 9 9 9 8 8 8 8 8 8 8 8 8 7 7 6 6 5 6 6 5 6 6 7 7 8 9 12 15 13 10 8 7 7
8 8 7 7 8 8 8 8 8 8 8 8 8 7 7 8 8 8 8 8 7 7 7 7 7 6 6 9 11 8 6 6 7 8 9 10 12 15 20 21 19 15 10
8 8 8 7 7 7 8 8 8 8 8 8 7 7 8 8 7 8 7 7 7 6 6 6 6 7 7 10 11 12 7 6 7 8 8 9 9 13 9 14 18 16 20
8 8 7 7 6 7 7 8 8 8 8 7 7 7 7 7 7 7 7 6 5 6 6 6 6 6 7 10 12 12 7 7 8 9 9 9 9 9 10 8 8 9 10
8 7 7 8 7 8 8 8 8 8 8 7 7 7 7 7 7 7 6 5 5 5 5 5 6 6 7 10 11 11 5 6 8 9 9 10 9 16 19 12 9 9 9
8 8 8 9 8 8 8 9 8 8 7 6 6 7 7 7 7 6 5 4 4 4 4 4 5 6 6 9 10 11 5 7 7 7 8 13 15 18 19 11 9 10 10
10 9 9 8 8 8 8 8 8 7 6 6 6 6 6 6 5 5 4 4 3 3 3 4 4 5 7 8 11 12 6 6 7 6 6 7 17 20 21 18 10 15 15
9 9 9 8 7 7 8 8 7 7 7 7 6 6 5 4 4 4 3 3 3 3 3 4 4 4 5 7 10 13 13 11 8 7 6 8 18 20 21 17 18 23 19
8 8 10 9 7 7 7 9 7 7 7 7 6 5 5 4 3 3 3 2 2 2 3 3 4 5 4 6 12 14 15 15 10 8 14 18 21 20 15 18 23 19 8
8 8 10 9 7 7 7 8 8 7 7 7 5 4 4 3 2 2 2 2 2 3 3 4 5 5 5 5 5 5 7 11 10 9 13 19 20 16 16 16 12 7 6
7 8 9 9 8 8 8 8 7 7 7 6 5 4 3 3 2 1 2 3 4 4 4 5 5 5 6 8 12 10 6 6 8 10 7 6 7 6 6 7 7 5 5
8 8 9 9 9 8 8 7 6 7 7 5 4 3 2 1 1 1 2 3 5 8 9 10 9 8 12 17 17 18 19 20 20 14 7 8 7 8 7 6 5 4 4
Wind_Direction
203 178 170 162 162 165 165 167 169 175 171 170 174 172 173 168 163 157 163 165 168 165 158 146 148 137 140 145 101 65 30 26 25 1 327 312 289 122 96 27 17 343 350
206 168 158 156 163 169 169 168 170 174 174 173 172 169 164 163 158 150 159 165 163 159 158 158 151 139 134 116 98 90 50 3 56 65 2 343 342 354 343 326 313 331 350
207 167 156 161 164 171 173 174 172 171 171 163 159 153 142 137 141 154 160 162 158 154 156 161 148 139 141 142 132 119 120 50 356 91 113 67 297 317 312 310 316 332 324
189 171 164 165 169 169 166 169 166 165 167 163 167 165 165 166 169 163 161 160 158 156 159 157 145 142 139 141 142 127 130 127 258 349 127 196 192 245 308 311 313 326 310
166 172 166 163 159 149 151 160 159 163 166 168 170 170 171 169 157 156 159 163 160 157 158 155 147 147 143 141 138 134 143 151 175 185 233 290 309 225 229 284 302 311 295
152 154 144 138 133 132 141 154 159 164 167 170 173 179 177 171 162 162 165 164 158 155 157 155 154 155 146 145 148 155 168 180 191 203 206 201 220 242 244 264 289 295 290
146 149 142 144 140 142 152 162 163 166 169 172 179 185 181 175 169 166 166 162 160 162 166 156 161 158 154 154 154 164 183 192 200 217 227 223 229 235 242 264 281 289 293
145 153 156 156 151 156 165 174 174 172 173 177 184 182 178 174 169 166 164 166 167 167 162 163 167 162 159 160 163 175 194 196 207 225 227 232 241 241 236 242 269 292 291
147 155 158 161 159 166 175 182 179 174 175 178 180 179 177 170 165 163 161 162 158 157 156 162 164 163 163 167 169 190 202 199 212 221 229 234 238 238 238 235 227 248 283
150 158 164 168 165 168 176 182 179 175 174 176 180 178 171 164 160 159 160 157 152 150 156 165 167 166 169 175 182 196 205 205 220 218 226 239 241 241 239 237 237 231 251
159 162 167 168 163 164 171 178 176 169 172 176 173 167 164 159 156 157 159 155 151 155 163 169 169 173 179 184 190 202 208 216 229 231 232 242 242 244 245 243 243 245 247
154 158 162 162 163 168 173 176 173 169 172 170 165 163 159 156 157 161 160 155 156 162 166 168 172 179 185 188 196 209 213 219 232 239 242 250 253 252 250 249 250 252 251
155 158 161 166 168 171 174 174 173 170 168 165 164 163 162 162 165 165 161 159 161 164 165 168 178 185 188 195 206 212 219 227 235 242 248 254 256 261 261 259 259 260 267
162 164 170 174 170 170 173 173 173 168 165 165 166 168 169 169 169 165 162 163 162 165 170 177 182 185 189 199 210 218 228 241 249 251 251 254 254 258 262 265 262 264 269
165 171 175 176 169 169 172 170 168 164 162 164 168 171 166 163 163 161 161 161 163 170 172 175 182 186 190 204 209 217 228 238 252 257 255 256 258 261 266 268 262 259 266
173 171 173 171 169 168 168 164 162 159 156 161 165 162 160 161 161 160 159 161 166 170 173 181 188 198 207 217 222 221 223 233 244 256 259 260 263 268 274 276 278 275 272
172 170 172 172 165 161 159 161 157 150 151 155 157 159 159 159 159 158 160 168 173 175 183 190 196 208 219 225 233 237 235 239 249 257 263 270 270 276 266 274 279 280 280
163 163 159 153 146 141 139 139 138 140 145 151 155 154 152 153 155 160 171 176 176 182 190 199 206 214 228 234 241 246 240 244 253 258 263 267 269 268 274 263 262 258 265
146 144 141 135 129 129 130 128 130 134 143 152 153 151 151 155 161 171 177 179 179 190 196 201 209 220 236 240 245 248 236 246 255 259 263 268 268 278 284 281 272 271 268
118 119 118 117 120 123 125 128 133 136 145 146 144 144 149 156 166 173 176 178 180 189 192 208 218 227 240 250 251 251 238 251 260 262 264 275 282 287 289 283 274 278 277
117 118 116 116 122 124 124 128 129 136 136 131 131 136 143 152 159 164 167 165 167 175 203 226 238 240 247 259 260 259 249 246 259 264 265 270 288 291 292 291 282 282 288
124 122 116 114 115 121 125 126 129 130 124 125 129 134 138 142 146 149 156 159 166 196 226 242 255 254 257 262 268 271 271 274 268 269 267 273 289 291 292 293 290 292 296
130 123 122 119 116 119 126 130 131 127 125 125 127 128 127 128 137 145 152 163 184 211 237 247 260 268 265 271 278 282 285 288 285 278 285 291 294 296 295 292 293 294 290
131 128 128 128 125 119 113 122 125 124 124 126 126 125 126 132 133 134 157 182 209 228 244 255 263 270 273 273 276 275 284 288 290 291 290 293 294 293 291 291 293 283 269
133 134 136 134 130 120 114 117 122 123 122 121 121 120 123 135 141 165 199 211 220 225 242 247 250 267 276 276 287 292 286 283 280 293 286 281 283 277 275 276 275 269 273
136 134 131 129 126 121 118 117 118 119 121 121 121 121 125 124 140 226 297 280 271 274 271 272 274 277 282 294 298 300 300 301 300 300 289 286 283 284 284 283 281 273 269
Height
1477 1479 1481 1485 1488 1492 1495 1497 1500 1505 1509 1512 1515 1519 1522 1525 1528 1531 1533 1535 1537 1538 1540 1541 1542 1542 1542 1542 1542 1542 1541 1540 1539 1537 1536 1535 1534 1533 1533 1532 1531 1530 1529
1472 1474 1476 1479 1483 1486 1490 1493 1496 1499 1503 1507 1511 1515 1518 1522 1525 1527 1530 1532 1534 1536 1537 1538 1539 1540 1540 1540 1540 1540 1539 1538 1537 1536 1534 1533 1533 1532 1532 1530 1529 1528 1527
1468 1470 1472 1474 1478 1481 1485 1488 1491 1495 1499 1503 1507 1512 1515 1518 1521 1523 1526 1529 1531 1533 1534 1535 1536 1537 1537 1537 1537 1537 1537 1536 1535 1535 1534 1533 1531 1530 1528 1527 1526 1525 1523
1465 1466 1468 1470 1473 1477 1481 1484 1488 1491 1495 1499 1502 1505 1508 1511 1515 1519 1522 1525 1527 1529 1531 1533 1533 1534 1535 1535 1535 1535 1534 1534 1533 1533 1532 1532 1531 1529 1525 1524 1523 1522 1520
1461 1463 1465 1467 1470 1473 1476 1480 1484 1487 1491 1494 1498 1501 1505 1509 1512 1515 1519 1521 1524 1526 1528 1529 1530 1531 1532 1532 1532 1532 1532 1531 1531 1530 1529 1528 1528 1526 1524 1520 1518 1516 1515
1458 1460 1462 1464 1466 1469 1473 1476 1480 1483 1487 1490 1494 1498 1501 1505 1508 1511 1514 1517 1520 1522 1524 1526 1527 1528 1528 1529 1529 1529 1529 1528 1528 1527 1526 1525 1524 1523 1521 1517 1513 1511 1509
1456 1457 1459 1461 1463 1465 1469 1473 1476 1480 1483 1487 1490 1494 1498 1501 1504 1507 1510 1513 1515 1518 1520 1522 1523 1524 1525 1525 1526 1526 1525 1525 1524 1524 1523 1522 1521 1519 1517 1514 1510 1506 1503
1454 1455 1457 1458 1460 1462 1466 1469 1473 1476 1480 1483 1487 1491 1494 1498 1501 1504 1507 1509 1512 1514 1516 1518 1519 1520 1521 1522 1522 1522 1522 1521 1521 1520 1519 1518 1517 1515 1513 1511 1507 1502 1497
1452 1454 1455 1456 1458 1460 1463 1466 1470 1473 1476 1480 1484 1487 1491 1494 1497 1500 1503 1506 1508 1510 1512 1514 1516 1517 1517 1518 1518 1518 1518 1517 1517 1516 1515 1513 1512 1510 1509 1507 1504 1501 1493
1451 1452 1453 1455 1456 1458 1461 1464 1468 1470 1473 1477 1480 1484 1487 1491 1494 1497 1499 1502 1504 1506 1508 1510 1512 1513 1513 1514 1514 1514 1513 1513 1512 1511 1510 1509 1507 1505 1503 1502 1500 1497 1492
1449 1450 1452 1453 1455 1457 1459 1462 1465 1468 1471 1474 1477 1480 1484 1487 1490 1493 1496 1498 1500 1502 1504 1506 1507 1508 1509 1510 1510 1509 1509 1508 1507 1506 1505 1503 1502 1500 1498 1496 1493 1491 1487
1447 1449 1450 1452 1453 1455 1457 1460 1463 1465 1468 1471 1474 1477 1480 1483 1486 1489 1491 1494 1496 1498 1500 1502 1503 1504 1505 1505 1505 1504 1504 1503 1502 1501 1499 1498 1496 1494 1492 1489 1487 1484 1481
1445 1447 1448 1449 1451 1453 1455 1457 1460 1462 1465 1467 1470 1473 1476 1479 1482 1484 1487 1490 1492 1494 1496 1497 1498 1499 1500 1500 1500 1499 1499 1498 1497 1495 1494 1492 1490 1487 1485 1483 1480 1477 1474
1442 1444 1446 1447 1449 1450 1452 1454 1456 1459 1461 1464 1467 1469 1472 1475 1478 1480 1483 1485 1488 1490 1491 1493 1494 1495 1495 1495 1495 1494 1493 1492 1491 1489 1488 1486 1483 1481 1478 1476 1473 1470 1467
1439 1441 1443 1444 1446 1448 1449 1451 1453 1456 1458 1460 1463 1465 1468 1471 1474 1476 1479 1481 1483 1485 1487 1488 1489 1490 1490 1490 1490 1489 1487 1486 1484 1483 1481 1479 1476 1474 1471 1469 1466 1463 1460
1435 1437 1439 1441 1442 1444 1446 1448 1450 1452 1455 1457 1459 1462 1465 1467 1470 1472 1474 1477 1479 1481 1482 1483 1484 1485 1485 1485 1484 1483 1481 1479 1477 1475 1473 1471 1469 1466 1464 1462 1459 1457 1454
1431 1433 1435 1437 1439 1441 1442 1444 1446 1449 1451 1454 1456 1459 1461 1463 1466 1468 1470 1472 1474 1476 1477 1478 1479 1479 1480 1479 1478 1477 1475 1472 1470 1468 1466 1463 1461 1459 1456 1453 1451 1449 1447
1427 1429 1431 1433 1436 1438 1440 1442 1444 1446 1448 1451 1453 1455 1457 1460 1462 1464 1466 1468 1470 1471 1473 1473 1474 1474 1474 1473 1472 1470 1468 1465 1463 1461 1459 1456 1453 1451 1449 1445 1442 1440 1438
1423 1425 1428 1430 1432 1435 1437 1439 1441 1444 1446 1448 1450 1452 1454 1456 1458 1460 1462 1464 1465 1467 1468 1469 1469 1469 1468 1467 1466 1464 1461 1458 1456 1454 1451 1449 1446 1444 1442 1438 1434 1431 1429
1419 1422 1425 1427 1429 1432 1435 1437 1439 1441 1443 1445 1447 1449 1451 1453 1455 1457 1459 1460 1462 1463 1463 1464 1464 1463 1462 1461 1460 1458 1454 1451 1448 1446 1444 1442 1439 1437 1434 1431 1427 1423 1420
1416 1419 1422 1425 1428 1430 1433 1435 1437 1439 1441 1443 1445 1447 1448 1450 1452 1454 1455 1457 1458 1458 1459 1459 1458 1457 1456 1455 1453 1451 1448 1444 1441 1438 1435 1434 1432 1429 1427 1424 1421 1417 1414
1414 1417 1420 1423 1426 1429 1431 1433 1435 1438 1439 1441 1443 1444 1446 1447 1449 1451 1452 1453 1454 1454 1454 1453 1452 1451 1450 1448 1446 1444 1442 1438 1434 1431 1428 1425 1423 1421 1418 1416 1413 1410 1407
1413 1416 1419 1422 1425 1428 1430 1432 1434 1436 1437 1439 1440 1442 1443 1445 1446 1448 1449 1449 1450 1449 1448 1447 1445 1444 1443 1441 1439 1437 1434 1431 1428 1424 1421 1418 1416 1413 1410 1407 1405 1403 1400
1411 1414 1418 1420 1423 1426 1428 1430 1432 1434 1435 1437 1438 1440 1441 1443 1444 1445 1446 1446 1445 1445 1443 1441 1439 1437 1435 1434 1431 1428 1426 1423 1420 1416 1413 1410 1407 1405 1402 1399 1397 1395 1393
1410 1413 1416 1419 1422 1424 1426 1429 1430 1432 1433 1435 1436 1438 1439 1440 1441 1441 1442 1441 1441 1440 1438 1436 1434 1431 1428 1426 1425 1422 1418 1415 1412 1408 1404 1402 1399 1396 1394 1392 1390 1388 1386
1408 1411 1414 1417 1420 1422 1425 1427 1428 1430 1431 1433 1434 1435 1436 1437 1437 1437 1437 1436 1436 1434 1433 1430 1428 1425 1423 1420 1417 1414 1411 1408 1405 1402 1397 1395 1392 1390 1388 1386 1383 1382 1380